Weather in Krasnikovo

Russia / Oryol Oblast     53°24′21″N   35°41′40″E
temp.,
°C
wind,
m/s
gust,
m/s
humid.,
%
clouds,
%
prec.,
mm/h
press.,
hPa
HPBL,
m
16 april, fri
fri1600:00+10ene3488100 1.9 101385
03:00+9e389234 3.2 1013192
06:00+7ese3690100 0.0 1015131
09:00+11se477317 0.0 1016564
12:00+14se585868 0.0 10161504
15:00+16ese5847100 0.1 10152097
18:00+14ese366210 0.6 1015226
21:00+9s227889 0.7 101731
17 april, sat
sat1700:00+8ese22805 0.0 101816
03:00+6se348577 0.0 101870
06:00+6e22845 0.0 101820
09:00+10ne2369100 0.0 1018359
12:00+10ne4983100 0.8 1017968
15:00+8ese3691100 2.8 1017499
18:00+6s3589100 0.2 1017408
21:00+6ssw3789100 0.3 1018609
18 april, sun
sun1800:00+4e239389 0.0 101981
03:00+3ese369529 0.0 1020143
06:00+3ene3597100 0.0 1020158
09:00+7se358034 0.1 1019648
12:00+10se465994 0.2 10191542
15:00+10se5659100 0.5 10191244
18:00+9ese4666100 0.0 1019799
21:00+7e3878100 0.0 1020209
19 april, mon
mon1900:00+6ese41088100 0.3 1020404
03:00+6e41086100 1.3 1019340
06:00+6e61288100 0.9 1019405
09:00+7e61185100 1.0 1020557
12:00+12ese71060100 0.3 10181508
15:00+13ese7956100 0.9 10181450
18:00+12e6106262 0.1 1017838
21:00+9ene61283100 0.5 1016459
20 april, tue
tue2000:00+9e61288100 0.7 1015939
03:00+7e91691100 3.1 1012876
06:00+7e81594100 4.4 1009991
09:00+7e112093100 12.2 1005868
12:00+7e112292100 8.0 10011399
15:00+8ese112091100 15.5 9981222
18:00+10ese81494100 2.4 996606
21:00+10se71587100 6.0 996501